This is the latest recevied weather packets stored in our database for station/object KD7ECD. If no packets are shown the sender has not sent any weather packets the latest 10 day(s).
| Time | Temp. | Humidity | Pressure | Rain* | Wind** | Luminosity | Snow |
|---|---|---|---|---|---|---|---|
| 1777992022 | 11.11° C | 89% | 1017.2 hPa | 0 mm | - | 42 W/m² | - |
| 1777991416 | 11.11° C | 89% | 1017.3 hPa | 0 mm | - | 35 W/m² | - |
| 1777990816 | 11.11° C | 90% | 1017 hPa | 0 mm | - | 41 W/m² | - |
| 1777989616 | 10.56° C | 92% | 1017 hPa | 0 mm | - | 38 W/m² | - |
| 1777989014 | 10.56° C | 93% | 1017.2 hPa | 0 mm | - | 19 W/m² | - |
| 1777988413 | 10.56° C | 94% | 1016.8 hPa | 0 mm | - | 13 W/m² | - |
| 1777987812 | 10.56° C | 94% | 1016.9 hPa | 0 mm | - | 7 W/m² | - |
| 1777987211 | 10.56° C | 94% | 1016.8 hPa | 0 mm | - | 1 W/m² | - |
| 1777986612 | 10.56° C | 94% | 1016.6 hPa | 0 mm | - | 0 W/m² | - |
| 1777986008 | 10.56° C | 93% | 1016.7 hPa | 0 mm | - | 0 W/m² | - |
| 1777985406 | 10.56° C | 93% | 1017 hPa | 0 mm | - | 0 W/m² | - |
| 1777984805 | 10.56° C | 94% | 1017 hPa | 0 mm | - | 0 W/m² | - |
| 1777984204 | 10.56° C | 94% | 1016.7 hPa | 0 mm | - | 0 W/m² | - |
| 1777983598 | 10.56° C | 95% | 1016.7 hPa | 0 mm | - | 0 W/m² | - |
| 1777982996 | 10.56° C | 95% | 1016.8 hPa | 0 mm | - | 0 W/m² | - |
| 1777982392 | 10.56° C | 95% | 1017 hPa | 0 mm | - | 0 W/m² | - |
| 1777981787 | 10.56° C | 95% | 1017 hPa | 0 mm | - | 0 W/m² | - |
| 1777981185 | 10.56° C | 95% | 1017.1 hPa | 0 mm | - | 0 W/m² | - |
| 1777980583 | 10° C | 95% | 1017.2 hPa | 0 mm | - | 0 W/m² | - |
| 1777979984 | 10° C | 95% | 1017.1 hPa | 0 mm | - | 0 W/m² | - |
| 1777979380 | 10° C | 95% | 1017.1 hPa | 0 mm | - | 0 W/m² | - |
| 1777978780 | 10° C | 95% | 1016.9 hPa | 0 mm | - | 0 W/m² | - |
| 1777978178 | 10° C | 95% | 1017 hPa | 0 mm | - | 0 W/m² | - |
| 1777977578 | 10° C | 95% | 1016.9 hPa | 0 mm | - | 0 W/m² | - |
| 1777976979 | 10° C | 95% | 1017 hPa | 0 mm | - | 0 W/m² | - |
* Rain latest hour (hover to see other rain measurements)
** Current wind speed in m/s (hover to see current wind gust speed)